Regional Weather Roundup
Issued by NWS Albany, NY

Home | Current Version | Previous Version | Text Only | Print | Product List | Glossary On
Versions: 1 2 3 4 5 6 7 8 9 10 11 12 13 14 15 16 17 18 19 20 21 22 23 24 25 26 27 28 29 30 31 32 33 34 35 36 37 38 39 40 41 42 43 44 45 46 47 48 49 50
000
ASUS41 KALY 191410
RWRALY

NEW YORK STATE HOURLY WEATHER ROUNDUP
NATIONAL WEATHER SERVICE ALBANY NY
1000 AM EDT SUN APR 19 2015

NOTE: "FAIR" INDICATES FEW OR NO CLOUDS BELOW 12,000 FEET WITH NO
SIGNIFICANT WEATHER AND/OR NO OBSTRUCTIONS TO VISIBILITY.

NYZ032-033-038>043-046>054-057>066-NYZ062>081-191500-
EAST


CITY           SKY/WX    TMP DP  RH WIND       PRES   REMARKS
ALBANY         MOSUNNY   49  30  48 N10       30.30S
GLENS FALLS    SUNNY     45  29  53 E8G17     30.31R
POUGHKEEPSIE   SUNNY     53  32  44 N9        30.28R
NEWBURGH       SUNNY     52  34  50 NE12G18   30.29R
MONTGOMERY     SUNNY     53  32  44 E8        30.27S
WHITE PLAINS   SUNNY     54  27  35 CALM      30.25R
ISLIP          PTSUNNY   56  31  38 NE9       30.25R
NEW YORK CITY  PTSUNNY   54  32  43 NE10      30.26R
CENTRAL PARK   SUNNY     56  29  35 E10       30.28S
$$

NYZ005>009-017-018-044>046-055-056-191500-
CENTRAL


CITY           SKY/WX    TMP DP  RH WIND       PRES   REMARKS
FULTON         SUNNY     47  29  49 E5        30.26F
SYRACUSE       MOSUNNY   48  30  49 E6        30.25F
ROME           SUNNY     47  29  49 MISG      30.28S
ELMIRA         MOSUNNY   50  31  48 CALM      30.22F
BINGHAMTON     SUNNY     47  28  47 E6        30.21S
MONTICELLO     SUNNY     48  30  49 E8        30.25S
$$

NYZ026>034-041>043-191500-
NORTH


CITY           SKY/WX    TMP DP  RH WIND       PRES   REMARKS
WATERTOWN      SUNNY     46  29  51 NE9       30.28F
FORT DRUM      NOT AVBL
MASSENA        SUNNY     44  27  51 NE10      30.34S
SARANAC LAKE   SUNNY     38  25  59 NE8       30.24F WCI  32
PLATTSBURGH    SUNNY     42  27  55 N8        30.33S
$$

NYZ001>004-010>016-019>021-191500-
WEST


CITY           SKY/WX    TMP DP  RH WIND       PRES   REMARKS
NIAGARA FALLS  PTSUNNY   47  32  56 E16       30.20F
BUFFALO        PTSUNNY   48  31  51 E13       30.19F
DUNKIRK        PTSUNNY   54  27  35 E8        30.13F
JAMESTOWN      PTSUNNY   50  25  37 SE15G22   30.12F
WELLSVILLE     PTSUNNY   49  24  37 SE10G21   30.18F
ROCHESTER      PTSUNNY   47  30  51 E10       30.24F
PENN YAN       SUNNY     48  32  53 VRB5      30.23F
$$

             KEY
       WCI = WIND CHILL INDEX
       VSB = VISIBILITY
       HX  = HEAT INDEX
$$



USA.gov is the U.S. government's official web portal to all federal, state and local government web resources and services.